Regional Weather Roundup
Issued by NWS Burlington, VT

Current Version | Previous Version | Text Only | Print | Product List | Glossary Off
Versions: 1 2 3 4 5 6 7 8 9 10 11 12 13 14 15 16 17 18 19 20 21 22 23 24 25 26 27 28 29 30 31 32 33 34 35 36 37 38 39 40 41 42 43 44 45 46 47 48 49 50
000 ASUS41 KBTV 230810 RWRBTV VERMONT REGIONAL WEATHER ROUNDUP NATIONAL WEATHER SERVICE BURLINGTON VT 300 AM EST FRI FEB 23 2018 NOTE: "FAIR" INDICATES FEW OR NO CLOUDS BELOW 12,000 FEET WITH NO SIGNIFICANT WEATHER AND/OR OBSTRUCTIONS TO VISIBILITY. * THESE REPORTS ARE NOT UNDER NWS QUALITY CONTROL AND/OR DO NOT REPORT WEATHER SUCH AS PRECIPITATION AND FOG. VTZ001>019-230900- _____VERMONT_____ CITY SKY/WX TMP DP RH WIND PRES REMARKS BURLINGTON FAIR 21 16 81 NW3 30.70F MONTPELIER FAIR 19 16 88 CALM 30.69F MORRISVILLE FAIR 16 14 92 CALM 30.70S LYNDONVILLE* FAIR 16 13 86 CALM 30.67S MIDDLEBURY* FAIR 19 17 91 CALM 30.69F RUTLAND* FAIR 19 17 92 SE5 30.69S WCI 12 SPRINGFIELD MOCLDY 21 20 96 CALM 30.70S HIGHGATE* FAIR 17 15 90 SE3 30.71S NEWPORT* FAIR 16 14 91 CALM 30.68S BENNINGTON CLOUDY 26 23 88 N3 30.64F _____LAKE CHAMPLAIN_____ CITY SKY/WX TMP DP RH WIND PRES REMARKS $$ NYZ007-026>031-035-052-083-087-230900- _____NORTHERN NEW YORK_____ CITY SKY/WX TMP DP RH WIND PRES REMARKS PLATTSBURGH FAIR 18 14 84 CALM 30.71S SARANAC LAKE FAIR 13 12 96 MISG 30.57F MASSENA FAIR 16 14 92 CALM 30.69F OGDENSBURG* FAIR 17 16 94 CALM 30.66F POTSDAM* MOCLDY 18 16 93 E3 30.64F WATERTOWN FAIR 20 18 92 NE5 30.63F WCI 13 FT DRUM FAIR 21 18 87 SE8 30.60F WCI 12 ALBANY FAIR 22 17 81 NW3 30.69F GLENS FALLS FAIR 17 15 92 CALM 30.71S $$ NHZ002-005-011-230900- _____NEW HAMPSHIRE_____ CITY SKY/WX TMP DP RH WIND PRES REMARKS LEBANON FAIR 19 16 88 CALM 30.69F KEENE N/A 23 22 96 MISG N/A MT WASHINGTON PTCLDY 18 -20 17 W24 N/A WCI 0 PLYMOUTH FAIR 20 18 90 CALM 30.69S WHITEFIELD FAIR 16 13 88 CALM 30.65F $$ _____REGIONAL QUEBEC LOCATIONS_____ CITY SKY/WX TMP DP RH WIND PRES REMARKS MONTREAL PTCLDY 19 12 73 VRB2 30.71F QUEBEC CITY CLEAR 3 1 92 SW2 30.72F SHERBROOKE CLEAR 10 7 85 E5 30.68F WCI 2 _____REGIONAL ONTARIO LOCATIONS_____ CITY SKY/WX TMP DP RH WIND PRES REMARKS OTTAWA CLOUDY 21 16 79 E6 30.67F WCI 14 ______KEY______ VSB - VISIBILITY IN MILES WCI - WIND CHILL INDEX HX - HEAT INDEX $$ NNNN

USA.gov is the U.S. government's official web portal to all federal, state and local government web resources and services.